User: anonymous   Login
Location: Burgerwiesen
(48.6500°N, 15.6167°E)
Time: 11:13:20
(UTC+00:00)
Language:

Cosmos-2242 - Orbit

View from above orbital plane
View from above orbital plane
View from above satellite
View from above satellite

Ground track
Ground track

The orbit data is extracted from the following two-line orbital elements,

1 22626U 93024A   20184.75345018  .00000122  00000-0  10495-4 0  9992
2 22626  82.5222  73.5865 0019866  34.3422 325.9075 14.88004210471431
Epoch (UTC): 02 July 2020 18:04:58
Eccentricity: 0.0019866
inclination: 82.5222°
perigee height: 590 km
apogee height: 618 km
right ascension of ascending node: 73.5865°
argument of perigee: 34.3422°
revolutions per day: 14.88004210
mean anomaly at epoch: 325.9075°
orbit number at epoch: 47143

The dashed part of the orbit path shows where the satellite is in the earth's shadow,  

DLR